Location: Milton Keynes
(52.0316°N, 0.7531°W)
Time: 10:23:45
(UTC+00:00)

N. Korean satellite - Pass Details

Date: 28 January 2019
Orbit: 457 x 510 km, 97.2° (Epoch: 17 February)

Event Time Altitude Azimuth Distance (km) Brightness Sun altitude
Rises 06:14:08 0° 15° (NNE) 2,616 10.3 -14.6°
Reaches altitude 10° 06:16:16 10° 20° (NNE) 1,719 9.4 -14.2°
Maximum altitude 06:19:56 61° 101° (E) 571 7.2 -13.7°
Drops below altitude 10° 06:23:30 10° 182° (S) 1,675 9.4 -13.2°
Sets 06:25:34 0° 186° (S) 2,541 10.3 -12.8°
